Time,TemperatureF,DewpointF,PressureIn,WindDirection,WindDirectionDegrees,WindSpeedMPH,WindSpeedGustMPH,Humidity,HourlyPrecipIn,Conditions,Clouds,dailyrainin,SolarRadiationWatts/m^2,SoftwareType,DateUTC
2013-03-22 00:00:00,77.2,72.3,29.98,SSE,157,0.0,0.0,85,0.00,,,0.00,0.0,meteohub,2013-03-22 04:00:00,
2013-03-22 00:01:00,77.0,72.1,29.98,SSE,157,0.0,0.0,85,0.00,,,0.00,0.0,meteohub,2013-03-22 04:01:00,
2013-03-22 00:06:00,77.0,72.1,29.98,SSE,158,0.0,0.0,85,0.00,,,0.00,0.0,meteohub,2013-03-22 04:06:00,
2013-03-22 00:11:00,77.0,72.1,29.98,SSE,157,0.0,0.0,85,0.00,,,0.00,0.0,meteohub,2013-03-22 04:11:00,
2013-03-22 00:16:00,77.0,72.1,29.98,SSE,155,0.0,0.0,85,0.00,,,0.00,0.0,meteohub,2013-03-22 04:16:00,
2013-03-22 00:21:00,77.0,72.1,29.98,SSE,158,0.0,0.0,85,0.00,,,0.00,0.0,meteohub,2013-03-22 04:21:00,
2013-03-22 00:27:00,77.0,72.1,29.98,SSE,157,0.0,0.0,85,0.00,,,0.00,0.0,meteohub,2013-03-22 04:27:00,
2013-03-22 00:32:00,77.0,72.1,29.97,SSE,157,0.0,0.0,85,0.00,,,0.00,0.0,meteohub,2013-03-22 04:32:00,
2013-03-22 00:37:00,77.0,72.1,29.97,SSE,157,0.0,0.0,85,0.00,,,0.00,0.0,meteohub,2013-03-22 04:37:00,
2013-03-22 00:42:00,77.0,72.1,29.97,SSE,157,0.0,0.0,85,0.00,,,0.00,0.0,meteohub,2013-03-22 04:42:00,
2013-03-22 00:47:00,77.0,72.1,29.97,SSE,157,0.0,1.0,85,0.00,,,0.00,0.0,meteohub,2013-03-22 04:47:00,
2013-03-22 00:52:00,77.0,72.1,29.97,SSE,157,0.0,1.0,85,0.00,,,0.00,0.0,meteohub,2013-03-22 04:52:00,
2013-03-22 00:57:00,77.0,72.1,29.97,SSE,157,0.0,0.0,85,0.00,,,0.00,0.0,meteohub,2013-03-22 04:57:00,
2013-03-22 01:02:00,77.0,72.5,29.97,SSE,164,0.0,0.0,86,0.00,,,0.00,0.0,meteohub,2013-03-22 05:02:00,
2013-03-22 01:07:00,77.0,72.5,29.97,SSE,164,0.0,2.0,86,0.00,,,0.00,0.0,meteohub,2013-03-22 05:07:00,
2013-03-22 01:12:00,76.8,72.3,29.97,SSE,164,0.0,2.0,86,0.00,,,0.00,0.0,meteohub,2013-03-22 05:12:00,
2013-03-22 01:17:00,76.8,72.3,29.96,SSE,162,0.0,2.0,86,0.00,,,0.00,0.0,meteohub,2013-03-22 05:17:00,
2013-03-22 01:22:00,76.8,72.3,29.96,SSE,164,0.0,0.0,86,0.00,,,0.00,0.0,meteohub,2013-03-22 05:22:00,
2013-03-22 01:27:00,76.6,72.1,29.96,SSE,164,0.0,0.0,86,0.00,,,0.00,0.0,meteohub,2013-03-22 05:27:00,
2013-03-22 01:32:00,76.6,72.1,29.96,SSE,164,0.0,0.0,86,0.00,,,0.00,0.0,meteohub,2013-03-22 05:32:00,
2013-03-22 01:37:00,76.6,72.5,29.96,SSE,165,0.0,0.0,87,0.00,,,0.00,0.0,meteohub,2013-03-22 05:37:00,
2013-03-22 01:42:00,76.6,72.5,29.96,SSE,164,0.0,0.0,87,0.00,,,0.00,0.0,meteohub,2013-03-22 05:42:00,
2013-03-22 01:47:00,76.5,72.3,29.96,SSE,162,0.0,0.0,87,0.00,,,0.00,0.0,meteohub,2013-03-22 05:47:00,
2013-03-22 01:53:00,76.5,72.3,29.96,SSE,164,0.0,0.0,87,0.00,,,0.00,0.0,meteohub,2013-03-22 05:53:00,
2013-03-22 01:58:00,76.5,72.3,29.95,SSE,164,0.0,0.0,87,0.00,,,0.00,0.0,meteohub,2013-03-22 05:58:00,
2013-03-22 02:03:00,76.3,72.1,29.95,SSE,164,0.0,0.0,87,0.00,,,0.00,0.0,meteohub,2013-03-22 06:03:00,
2013-03-22 02:08:00,76.3,72.5,29.95,SSE,164,0.0,0.0,88,0.00,,,0.00,0.0,meteohub,2013-03-22 06:08:00,
2013-03-22 02:13:00,76.3,72.5,29.95,SSE,164,0.0,0.0,88,0.00,,,0.00,0.0,meteohub,2013-03-22 06:13:00,
2013-03-22 02:18:00,76.3,72.5,29.95,SSE,164,0.0,0.0,88,0.00,,,0.00,0.0,meteohub,2013-03-22 06:18:00,
2013-03-22 02:23:00,76.1,72.3,29.95,SSE,162,0.0,0.0,88,0.00,,,0.00,0.0,meteohub,2013-03-22 06:23:00,
2013-03-22 02:28:00,76.3,72.5,29.95,SSE,165,0.0,0.0,88,0.00,,,0.00,0.0,meteohub,2013-03-22 06:28:00,
2013-03-22 02:33:00,76.3,72.5,29.95,SSE,164,0.0,0.0,88,0.00,,,0.00,0.0,meteohub,2013-03-22 06:33:00,
2013-03-22 02:38:00,76.3,72.5,29.95,SSE,165,0.0,0.0,88,0.00,,,0.00,0.0,meteohub,2013-03-22 06:38:00,
2013-03-22 02:43:00,76.3,72.5,29.94,SSE,165,0.0,0.0,88,0.00,,,0.00,0.0,meteohub,2013-03-22 06:43:00,
2013-03-22 02:48:00,76.1,72.7,29.94,SSE,164,0.0,0.0,89,0.00,,,0.00,0.0,meteohub,2013-03-22 06:48:00,
2013-03-22 02:53:00,76.1,72.7,29.94,SSE,165,0.0,0.0,89,0.00,,,0.00,0.0,meteohub,2013-03-22 06:53:00,
2013-03-22 02:58:00,76.1,72.7,29.94,SSE,164,0.0,0.0,89,0.00,,,0.00,0.0,meteohub,2013-03-22 06:58:00,
2013-03-22 03:03:00,75.9,72.5,29.94,SSE,162,0.0,0.0,89,0.00,,,0.00,0.0,meteohub,2013-03-22 07:03:00,
2013-03-22 03:08:00,75.9,72.5,29.94,SSE,164,0.0,0.0,89,0.00,,,0.00,0.0,meteohub,2013-03-22 07:08:00,
2013-03-22 03:13:00,75.7,72.3,29.94,SSE,164,0.0,0.0,89,0.00,,,0.00,0.0,meteohub,2013-03-22 07:13:00,
2013-03-22 03:18:00,75.7,72.3,29.94,SSE,162,0.0,0.0,89,0.00,,,0.00,0.0,meteohub,2013-03-22 07:18:00,
2013-03-22 03:24:00,75.7,72.3,29.94,SSE,164,0.0,0.0,89,0.00,,,0.00,0.0,meteohub,2013-03-22 07:24:00,
2013-03-22 03:28:00,75.7,72.3,29.94,SSE,165,0.0,0.0,89,0.00,,,0.00,0.0,meteohub,2013-03-22 07:28:00,
2013-03-22 03:34:00,75.6,72.1,29.94,SSE,164,0.0,0.0,89,0.00,,,0.00,0.0,meteohub,2013-03-22 07:34:00,
2013-03-22 03:39:00,75.6,72.5,29.94,SSE,164,0.0,0.0,90,0.00,,,0.00,0.0,meteohub,2013-03-22 07:39:00,
2013-03-22 03:44:00,75.6,72.5,29.94,SSE,164,0.0,0.0,90,0.00,,,0.00,0.0,meteohub,2013-03-22 07:44:00,
2013-03-22 03:49:00,75.6,72.5,29.94,SSE,164,0.0,0.0,90,0.00,,,0.00,0.0,meteohub,2013-03-22 07:49:00,
2013-03-22 03:53:00,75.6,72.5,29.94,SSE,164,0.0,0.0,90,0.00,,,0.00,0.0,meteohub,2013-03-22 07:53:00,
2013-03-22 03:58:00,75.6,72.5,29.94,SSE,164,0.0,0.0,90,0.00,,,0.00,0.0,meteohub,2013-03-22 07:58:00,
2013-03-22 04:04:00,75.6,72.5,29.94,SSE,164,0.0,0.0,90,0.00,,,0.00,0.0,meteohub,2013-03-22 08:04:00,
2013-03-22 04:09:00,75.6,72.5,29.94,SSE,162,0.0,0.0,90,0.00,,,0.00,0.0,meteohub,2013-03-22 08:09:00,
2013-03-22 04:14:00,75.6,72.5,29.95,SSE,165,0.0,0.0,90,0.00,,,0.00,0.0,meteohub,2013-03-22 08:14:00,
2013-03-22 04:19:00,75.4,72.5,29.95,SSE,164,0.0,0.0,91,0.00,,,0.00,0.0,meteohub,2013-03-22 08:19:00,
2013-03-22 04:24:00,75.4,72.5,29.95,SSE,164,0.0,0.0,91,0.00,,,0.00,0.0,meteohub,2013-03-22 08:24:00,
2013-03-22 04:29:00,75.4,72.5,29.95,SSE,164,0.0,0.0,91,0.00,,,0.00,0.0,meteohub,2013-03-22 08:29:00,
2013-03-22 04:34:00,75.4,72.5,29.95,SSE,164,0.0,0.0,91,0.00,,,0.00,0.0,meteohub,2013-03-22 08:34:00,
2013-03-22 04:39:00,75.6,72.7,29.95,SSE,165,0.0,0.0,91,0.00,,,0.00,0.0,meteohub,2013-03-22 08:39:00,
2013-03-22 04:44:00,75.6,72.7,29.95,SSE,167,0.0,1.0,91,0.00,,,0.00,0.0,meteohub,2013-03-22 08:44:00,
2013-03-22 04:49:00,75.6,72.7,29.95,SSE,164,0.0,1.0,91,0.00,,,0.00,0.0,meteohub,2013-03-22 08:49:00,
2013-03-22 04:54:00,75.6,72.7,29.95,SSE,165,0.0,1.0,91,0.00,,,0.00,0.0,meteohub,2013-03-22 08:54:00,
2013-03-22 04:59:00,75.6,72.7,29.96,SSE,165,0.0,0.0,91,0.00,,,0.00,0.0,meteohub,2013-03-22 08:59:00,
2013-03-22 05:04:00,75.6,72.7,29.96,SSE,165,0.0,0.0,91,0.00,,,0.00,0.0,meteohub,2013-03-22 09:04:00,
2013-03-22 05:09:00,75.6,72.7,29.96,SSE,165,0.0,0.0,91,0.00,,,0.00,0.0,meteohub,2013-03-22 09:09:00,
2013-03-22 05:14:00,75.6,72.7,29.96,SSE,165,0.0,0.0,91,0.00,,,0.00,0.0,meteohub,2013-03-22 09:14:00,
2013-03-22 05:19:00,75.7,72.9,29.96,SSE,165,0.0,0.0,91,0.00,,,0.00,0.0,meteohub,2013-03-22 09:19:00,
2013-03-22 05:24:00,75.6,72.7,29.96,SSE,165,0.0,0.0,91,0.00,,,0.00,0.0,meteohub,2013-03-22 09:24:00,
2013-03-22 05:29:00,75.6,72.7,29.97,SSE,165,0.0,0.0,91,0.00,,,0.00,0.0,meteohub,2013-03-22 09:29:00,
2013-03-22 05:34:00,75.6,72.7,29.97,SSE,165,0.0,0.0,91,0.00,,,0.00,0.0,meteohub,2013-03-22 09:34:00,
2013-03-22 05:39:00,75.7,72.9,29.97,SSE,165,0.0,0.0,91,0.00,,,0.00,0.0,meteohub,2013-03-22 09:39:00,
2013-03-22 05:44:00,75.7,72.9,29.98,SSE,167,0.0,0.0,91,0.00,,,0.00,0.0,meteohub,2013-03-22 09:44:00,
2013-03-22 05:49:00,75.7,72.9,29.98,SSE,167,0.0,0.0,91,0.00,,,0.00,0.0,meteohub,2013-03-22 09:49:00,
2013-03-22 05:54:00,75.7,72.9,29.98,SSE,167,0.0,0.0,91,0.00,,,0.00,0.0,meteohub,2013-03-22 09:54:00,
2013-03-22 05:59:00,75.7,72.9,29.98,SSE,165,0.0,0.0,91,0.00,,,0.00,0.0,meteohub,2013-03-22 09:59:00,
2013-03-22 06:04:00,75.7,72.9,29.98,SSE,165,0.0,0.0,91,0.00,,,0.00,0.0,meteohub,2013-03-22 10:04:00,
2013-03-22 06:09:00,75.7,72.9,29.98,SSE,165,0.0,0.0,91,0.00,,,0.00,0.0,meteohub,2013-03-22 10:09:00,
2013-03-22 06:14:00,75.9,73.0,29.99,SSE,165,0.0,0.0,91,0.00,,,0.00,0.0,meteohub,2013-03-22 10:14:00,
2013-03-22 06:19:00,75.9,73.0,29.99,SSE,165,0.0,0.0,91,0.00,,,0.00,0.0,meteohub,2013-03-22 10:19:00,
2013-03-22 06:24:00,76.1,73.2,29.99,SSE,168,0.0,0.0,91,0.00,,,0.00,0.0,meteohub,2013-03-22 10:24:00,
2013-03-22 06:29:00,76.1,73.2,29.99,SSE,168,0.0,2.0,91,0.00,,,0.00,0.0,meteohub,2013-03-22 10:29:00,
2013-03-22 06:34:00,75.9,73.0,29.99,SSE,168,0.0,2.0,91,0.00,,,0.00,7.0,meteohub,2013-03-22 10:34:00,
2013-03-22 06:39:00,75.7,72.9,29.99,South,169,0.0,2.0,91,0.00,,,0.00,12.0,meteohub,2013-03-22 10:39:00,
2013-03-22 06:44:00,75.7,72.9,29.99,South,174,1.0,3.0,91,0.00,,,0.00,23.0,meteohub,2013-03-22 10:44:00,
2013-03-22 06:50:00,75.6,72.7,29.99,SSW,193,0.0,5.0,91,0.00,,,0.00,46.0,meteohub,2013-03-22 10:50:00,
2013-03-22 06:55:00,75.6,72.7,29.99,SSW,192,0.0,6.0,91,0.00,,,0.00,70.0,meteohub,2013-03-22 10:55:00,
2013-03-22 07:00:00,75.9,72.9,30.00,SSW,196,0.0,6.0,90,0.00,,,0.00,100.0,meteohub,2013-03-22 11:00:00,
2013-03-22 07:05:00,76.1,72.9,30.00,SSW,196,0.0,6.0,90,0.00,,,0.00,125.0,meteohub,2013-03-22 11:05:00,
2013-03-22 07:10:00,76.3,72.9,30.00,SSW,199,0.0,5.0,89,0.00,,,0.00,151.0,meteohub,2013-03-22 11:10:00,
2013-03-22 07:15:00,76.5,73.0,30.00,SSW,196,0.0,5.0,89,0.00,,,0.00,99.0,meteohub,2013-03-22 11:15:00,
2013-03-22 07:20:00,76.6,72.9,30.00,SSW,196,0.0,0.0,88,0.00,,,0.00,102.0,meteohub,2013-03-22 11:20:00,
2013-03-22 07:25:00,77.0,73.2,30.00,SSW,195,0.0,0.0,88,0.00,,,0.00,90.0,meteohub,2013-03-22 11:25:00,
2013-03-22 07:30:00,77.4,73.2,30.01,South,191,0.0,3.0,87,0.00,,,0.00,102.0,meteohub,2013-03-22 11:30:00,
2013-03-22 07:35:00,77.5,73.0,30.01,South,184,0.0,3.0,86,0.00,,,0.00,121.0,meteohub,2013-03-22 11:35:00,
2013-03-22 07:40:00,77.9,73.4,30.01,SSW,206,0.0,6.0,86,0.00,,,0.00,123.0,meteohub,2013-03-22 11:40:00,
2013-03-22 07:45:00,78.3,73.4,30.02,SSW,203,0.0,6.0,85,0.00,,,0.00,146.0,meteohub,2013-03-22 11:45:00,
2013-03-22 07:50:00,78.6,73.8,30.02,South,181,0.0,6.0,85,0.00,,,0.00,160.0,meteohub,2013-03-22 11:50:00,
2013-03-22 07:56:00,79.0,73.8,30.02,SE,138,3.0,8.0,84,0.00,,,0.00,167.0,meteohub,2013-03-22 11:56:00,
2013-03-22 08:01:00,79.5,74.3,30.02,SE,137,0.0,8.0,84,0.00,,,0.00,271.0,meteohub,2013-03-22 12:01:00,
2013-03-22 08:06:00,79.9,74.3,30.02,South,178,0.0,8.0,83,0.00,,,0.00,377.0,meteohub,2013-03-22 12:06:00,
2013-03-22 08:11:00,80.2,74.3,30.02,SSW,193,0.0,8.0,82,0.00,,,0.00,377.0,meteohub,2013-03-22 12:11:00,
2013-03-22 08:16:00,80.2,74.3,30.03,South,179,5.0,8.0,82,0.00,,,0.00,384.0,meteohub,2013-03-22 12:16:00,
2013-03-22 08:21:00,80.4,74.1,30.03,SSE,162,6.0,10.0,81,0.00,,,0.00,399.0,meteohub,2013-03-22 12:21:00,
2013-03-22 08:26:00,81.0,74.7,30.03,South,169,0.0,10.0,81,0.00,,,0.00,421.0,meteohub,2013-03-22 12:26:00,
2013-03-22 08:32:00,81.3,74.1,30.04,SSE,168,0.0,10.0,79,0.00,,,0.00,440.0,meteohub,2013-03-22 12:32:00,
2013-03-22 08:37:00,81.9,74.3,30.04,SSE,162,0.0,7.0,78,0.00,,,0.00,472.0,meteohub,2013-03-22 12:37:00,
2013-03-22 08:42:00,82.2,74.3,30.04,South,172,0.0,8.0,77,0.00,,,0.00,466.0,meteohub,2013-03-22 12:42:00,
2013-03-22 08:47:00,82.4,74.5,30.04,South,191,0.0,8.0,77,0.00,,,0.00,519.0,meteohub,2013-03-22 12:47:00,
2013-03-22 08:52:00,82.4,74.5,30.04,SSE,168,0.0,8.0,77,0.00,,,0.00,537.0,meteohub,2013-03-22 12:52:00,
2013-03-22 08:57:00,82.4,74.5,30.04,South,171,0.0,6.0,77,0.00,,,0.00,563.0,meteohub,2013-03-22 12:57:00,
2013-03-22 09:02:00,82.4,74.5,30.04,SSW,210,0.0,11.0,77,0.00,,,0.00,602.0,meteohub,2013-03-22 13:02:00,
2013-03-22 09:07:00,82.4,74.1,30.04,SW,223,0.0,11.0,76,0.00,,,0.00,607.0,meteohub,2013-03-22 13:07:00,
2013-03-22 09:12:00,82.6,74.3,30.04,South,169,0.0,11.0,76,0.00,,,0.00,605.0,meteohub,2013-03-22 13:12:00,
2013-03-22 09:17:00,83.1,74.3,30.04,SE,137,8.0,9.0,75,0.00,,,0.00,633.0,meteohub,2013-03-22 13:17:00,
2013-03-22 09:22:00,83.7,74.8,30.04,South,184,4.0,12.0,75,0.00,,,0.00,637.0,meteohub,2013-03-22 13:22:00,
2013-03-22 09:28:00,83.8,74.7,30.04,SSW,213,8.0,12.0,74,0.00,,,0.00,649.0,meteohub,2013-03-22 13:28:00,
2013-03-22 09:33:00,83.8,74.3,30.04,SSW,195,8.0,12.0,73,0.00,,,0.00,676.0,meteohub,2013-03-22 13:33:00,
2013-03-22 09:38:00,84.0,74.5,30.04,SSW,193,7.0,11.0,73,0.00,,,0.00,688.0,meteohub,2013-03-22 13:38:00,
2013-03-22 09:43:00,84.0,74.5,30.04,SE,140,7.0,11.0,73,0.00,,,0.00,730.0,meteohub,2013-03-22 13:43:00,
2013-03-22 09:48:00,84.4,74.8,30.04,SSE,147,0.0,13.0,73,0.00,,,0.00,746.0,meteohub,2013-03-22 13:48:00,
2013-03-22 09:53:00,84.4,74.3,30.04,South,189,0.0,13.0,72,0.00,,,0.00,187.0,meteohub,2013-03-22 13:53:00,
2013-03-22 09:58:00,84.4,74.3,30.04,SSE,147,5.0,13.0,72,0.00,,,0.00,799.0,meteohub,2013-03-22 13:58:00,
2013-03-22 10:03:00,84.0,74.5,30.04,South,182,5.0,12.0,73,0.00,,,0.00,162.0,meteohub,2013-03-22 14:03:00,
2013-03-22 10:08:00,84.0,73.9,30.04,SSE,167,0.0,12.0,72,0.00,,,0.00,169.0,meteohub,2013-03-22 14:08:00,
2013-03-22 10:13:00,84.4,74.3,30.04,SSE,158,3.0,12.0,72,0.00,,,0.00,183.0,meteohub,2013-03-22 14:13:00,
2013-03-22 10:18:00,84.6,74.5,30.04,South,178,4.0,11.0,72,0.00,,,0.00,183.0,meteohub,2013-03-22 14:18:00,
2013-03-22 10:23:00,84.9,74.8,30.04,SSW,193,3.0,12.0,72,0.00,,,0.00,878.0,meteohub,2013-03-22 14:23:00,
2013-03-22 10:28:00,85.5,74.1,30.04,SE,143,4.0,12.0,69,0.00,,,0.00,882.0,meteohub,2013-03-22 14:28:00,
2013-03-22 10:33:00,85.8,74.5,30.04,SSE,155,7.0,11.0,69,0.00,,,0.00,869.0,meteohub,2013-03-22 14:33:00,
2013-03-22 10:38:00,86.5,74.3,30.04,South,179,7.0,13.0,67,0.00,,,0.00,183.0,meteohub,2013-03-22 14:38:00,
2013-03-22 10:44:00,86.2,74.3,30.04,SSE,168,0.0,13.0,68,0.00,,,0.00,906.0,meteohub,2013-03-22 14:44:00,
2013-03-22 10:48:00,86.7,74.5,30.04,SSW,206,2.0,13.0,67,0.00,,,0.00,885.0,meteohub,2013-03-22 14:48:00,
2013-03-22 10:53:00,87.6,74.3,30.04,SE,140,3.0,11.0,65,0.00,,,0.00,887.0,meteohub,2013-03-22 14:53:00,
2013-03-22 10:59:00,87.8,74.5,30.04,South,182,0.0,13.0,65,0.00,,,0.00,920.0,meteohub,2013-03-22 14:59:00,
2013-03-22 11:04:00,88.0,74.3,30.04,SE,144,0.0,14.0,64,0.00,,,0.00,906.0,meteohub,2013-03-22 15:04:00,
2013-03-22 11:09:00,88.2,74.5,30.04,SW,215,6.0,14.0,64,0.00,,,0.00,903.0,meteohub,2013-03-22 15:09:00,
2013-03-22 11:14:00,88.3,74.7,30.04,SSW,200,6.0,13.0,64,0.00,,,0.00,934.0,meteohub,2013-03-22 15:14:00,
2013-03-22 11:19:00,88.2,73.4,30.04,SSE,152,0.0,13.0,62,0.00,,,0.00,183.0,meteohub,2013-03-22 15:19:00,
2013-03-22 11:24:00,88.2,73.9,30.04,SSE,164,0.0,13.0,63,0.00,,,0.00,183.0,meteohub,2013-03-22 15:24:00,
2013-03-22 11:29:00,89.1,73.9,30.03,SE,127,6.0,12.0,61,0.00,,,0.00,686.0,meteohub,2013-03-22 15:29:00,
2013-03-22 11:34:00,89.1,72.9,30.03,SSE,168,3.0,13.0,59,0.00,,,0.00,132.0,meteohub,2013-03-22 15:34:00,
2013-03-22 11:39:00,89.4,72.7,30.03,SSE,162,3.0,13.0,58,0.00,,,0.00,920.0,meteohub,2013-03-22 15:39:00,
2013-03-22 11:44:00,89.2,71.4,30.03,SSW,209,0.0,13.0,56,0.00,,,0.00,602.0,meteohub,2013-03-22 15:44:00,
2013-03-22 11:49:00,90.0,73.2,30.03,ESE,117,1.0,16.0,58,0.00,,,0.00,313.0,meteohub,2013-03-22 15:49:00,
2013-03-22 11:54:00,90.7,73.4,30.03,SE,143,0.0,16.0,57,0.00,,,0.00,1001.0,meteohub,2013-03-22 15:54:00,
2013-03-22 11:59:00,90.1,73.4,30.02,ESE,113,6.0,11.0,58,0.00,,,0.00,213.0,meteohub,2013-03-22 15:59:00,
2013-03-22 12:04:00,90.3,73.0,30.02,SSW,198,4.0,11.0,57,0.00,,,0.00,987.0,meteohub,2013-03-22 16:04:00,
2013-03-22 12:09:00,90.7,73.4,30.02,ESE,103,2.0,11.0,57,0.00,,,0.00,987.0,meteohub,2013-03-22 16:09:00,
2013-03-22 12:14:00,91.8,73.8,30.01,ESE,103,7.0,11.0,56,0.00,,,0.00,623.0,meteohub,2013-03-22 16:14:00,
2013-03-22 12:19:00,91.4,73.4,30.01,SSE,165,7.0,14.0,56,0.00,,,0.00,702.0,meteohub,2013-03-22 16:19:00,
2013-03-22 12:24:00,91.2,73.4,30.01,SSE,164,2.0,14.0,56,0.00,,,0.00,998.0,meteohub,2013-03-22 16:24:00,
2013-03-22 12:29:00,91.2,73.4,30.01,ESE,104,3.0,14.0,56,0.00,,,0.00,774.0,meteohub,2013-03-22 16:29:00,
2013-03-22 12:34:00,91.8,74.3,30.01,ESE,120,7.0,14.0,57,0.00,,,0.00,1036.0,meteohub,2013-03-22 16:34:00,
2013-03-22 12:39:00,92.3,73.8,30.01,SE,124,11.0,14.0,55,0.00,,,0.00,999.0,meteohub,2013-03-22 16:39:00,
2013-03-22 12:44:00,92.1,74.1,30.00,South,171,0.0,14.0,56,0.00,,,0.00,1057.0,meteohub,2013-03-22 16:44:00,
2013-03-22 12:49:00,92.3,73.8,30.00,SSW,192,3.0,16.0,55,0.00,,,0.00,1024.0,meteohub,2013-03-22 16:49:00,
2013-03-22 12:54:00,92.1,73.6,30.00,SW,215,7.0,16.0,55,0.00,,,0.00,1010.0,meteohub,2013-03-22 16:54:00,
2013-03-22 12:59:00,92.3,73.2,29.99,SSW,202,3.0,16.0,54,0.00,,,0.00,1065.0,meteohub,2013-03-22 16:59:00,
2013-03-22 13:04:00,92.1,73.0,29.99,SE,141,6.0,13.0,54,0.00,,,0.00,994.0,meteohub,2013-03-22 17:04:00,
2013-03-22 13:09:00,92.3,73.2,29.99,SSW,209,6.0,12.0,54,0.00,,,0.00,999.0,meteohub,2013-03-22 17:09:00,
2013-03-22 13:14:00,92.3,72.7,29.98,SSE,157,6.0,16.0,53,0.00,,,0.00,1010.0,meteohub,2013-03-22 17:14:00,
2013-03-22 13:19:00,92.7,73.0,29.98,ESE,123,1.0,16.0,53,0.00,,,0.00,968.0,meteohub,2013-03-22 17:19:00,
2013-03-22 13:24:00,93.4,73.0,29.98,SSE,147,10.0,16.0,52,0.00,,,0.00,992.0,meteohub,2013-03-22 17:24:00,
2013-03-22 13:29:00,93.2,72.9,29.97,ESE,104,6.0,14.0,52,0.00,,,0.00,1082.0,meteohub,2013-03-22 17:29:00,
2013-03-22 13:34:00,92.5,73.4,29.97,South,188,5.0,17.0,54,0.00,,,0.00,1003.0,meteohub,2013-03-22 17:34:00,
2013-03-22 13:39:00,92.5,73.4,29.97,South,184,3.0,17.0,54,0.00,,,0.00,947.0,meteohub,2013-03-22 17:39:00,
2013-03-22 13:44:00,92.7,73.0,29.97,SSW,195,0.0,15.0,53,0.00,,,0.00,1005.0,meteohub,2013-03-22 17:44:00,
2013-03-22 13:49:00,92.1,73.0,29.97,SSE,164,7.0,14.0,54,0.00,,,0.00,222.0,meteohub,2013-03-22 17:49:00,
2013-03-22 13:54:00,92.3,72.1,29.97,South,186,10.0,14.0,52,0.00,,,0.00,987.0,meteohub,2013-03-22 17:54:00,
2013-03-22 13:59:00,93.2,72.3,29.96,South,191,6.0,14.0,51,0.00,,,0.00,984.0,meteohub,2013-03-22 17:59:00,
2013-03-22 14:04:00,93.4,73.0,29.96,SSW,198,8.0,11.0,52,0.00,,,0.00,954.0,meteohub,2013-03-22 18:04:00,
2013-03-22 14:10:00,93.6,73.2,29.96,SSE,158,5.0,12.0,52,0.00,,,0.00,927.0,meteohub,2013-03-22 18:10:00,
2013-03-22 14:15:00,93.6,72.7,29.96,SE,133,3.0,12.0,51,0.00,,,0.00,927.0,meteohub,2013-03-22 18:15:00,
2013-03-22 14:20:00,93.9,72.5,29.96,SSE,162,2.0,13.0,50,0.00,,,0.00,927.0,meteohub,2013-03-22 18:20:00,
2013-03-22 14:25:00,93.9,73.0,29.96,SSE,152,5.0,13.0,51,0.00,,,0.00,899.0,meteohub,2013-03-22 18:25:00,
2013-03-22 14:30:00,93.9,73.0,29.96,SSE,154,10.0,13.0,51,0.00,,,0.00,880.0,meteohub,2013-03-22 18:30:00,
2013-03-22 14:35:00,93.7,73.4,29.96,SSE,162,3.0,17.0,52,0.00,,,0.00,843.0,meteohub,2013-03-22 18:35:00,
2013-03-22 14:40:00,93.6,72.1,29.96,South,185,6.0,19.0,50,0.00,,,0.00,822.0,meteohub,2013-03-22 18:40:00,
2013-03-22 14:45:00,94.3,73.9,29.95,SE,130,4.0,19.0,52,0.00,,,0.00,825.0,meteohub,2013-03-22 18:45:00,
2013-03-22 14:50:00,93.4,73.8,29.95,SE,127,11.0,19.0,53,0.00,,,0.00,797.0,meteohub,2013-03-22 18:50:00,
2013-03-22 14:55:00,92.8,73.2,29.95,ESE,114,13.0,16.0,53,0.00,,,0.00,783.0,meteohub,2013-03-22 18:55:00,
2013-03-22 15:00:00,92.8,73.8,29.95,East,99,3.0,17.0,54,0.00,,,0.00,779.0,meteohub,2013-03-22 19:00:00,
2013-03-22 15:05:00,92.8,73.8,29.95,SE,124,9.0,17.0,54,0.00,,,0.00,776.0,meteohub,2013-03-22 19:05:00,
2013-03-22 15:10:00,92.8,72.7,29.95,SSE,157,2.0,14.0,52,0.00,,,0.00,714.0,meteohub,2013-03-22 19:10:00,
2013-03-22 15:15:00,92.8,73.2,29.94,SSE,165,5.0,14.0,53,0.00,,,0.00,118.0,meteohub,2013-03-22 19:15:00,
2013-03-22 15:20:00,92.1,73.0,29.94,SSW,193,2.0,14.0,54,0.00,,,0.00,120.0,meteohub,2013-03-22 19:20:00,
2013-03-22 15:25:00,91.6,73.0,29.94,SE,145,5.0,13.0,55,0.00,,,0.00,691.0,meteohub,2013-03-22 19:25:00,
2013-03-22 15:30:00,91.4,73.0,29.94,SE,145,6.0,11.0,55,0.00,,,0.00,86.0,meteohub,2013-03-22 19:30:00,
2013-03-22 15:35:00,91.4,73.0,29.94,SE,144,5.0,13.0,55,0.00,,,0.00,523.0,meteohub,2013-03-22 19:35:00,
2013-03-22 15:40:00,91.6,73.0,29.94,ESE,123,4.0,13.0,55,0.00,,,0.00,646.0,meteohub,2013-03-22 19:40:00,
2013-03-22 15:46:00,91.8,73.2,29.94,SSE,165,0.0,17.0,55,0.00,,,0.00,419.0,meteohub,2013-03-22 19:46:00,
2013-03-22 15:51:00,91.0,73.2,29.94,SE,143,11.0,17.0,56,0.00,,,0.00,70.0,meteohub,2013-03-22 19:51:00,
2013-03-22 15:56:00,90.3,73.0,29.94,SSE,168,8.0,17.0,57,0.00,,,0.00,62.0,meteohub,2013-03-22 19:56:00,
2013-03-22 16:01:00,89.8,73.0,29.94,SE,136,4.0,16.0,58,0.00,,,0.00,69.0,meteohub,2013-03-22 20:01:00,
2013-03-22 16:06:00,89.2,73.0,29.94,South,185,4.0,16.0,59,0.00,,,0.00,83.0,meteohub,2013-03-22 20:06:00,
2013-03-22 16:11:00,89.1,72.9,29.94,SSE,165,0.0,16.0,59,0.00,,,0.00,93.0,meteohub,2013-03-22 20:11:00,
2013-03-22 16:16:00,89.1,72.9,29.94,SE,137,0.0,10.0,59,0.00,,,0.00,99.0,meteohub,2013-03-22 20:16:00,
2013-03-22 16:21:00,88.9,73.2,29.94,SSE,160,0.0,11.0,60,0.00,,,0.00,111.0,meteohub,2013-03-22 20:21:00,
2013-03-22 16:26:00,88.9,74.1,29.94,SSE,148,4.0,11.0,62,0.00,,,0.00,77.0,meteohub,2013-03-22 20:26:00,
2013-03-22 16:32:00,88.0,73.4,29.95,SW,219,5.0,11.0,62,0.00,,,0.00,51.0,meteohub,2013-03-22 20:32:00,
2013-03-22 16:37:00,87.3,75.9,29.95,West,270,0.0,12.0,69,0.00,,,0.00,48.0,meteohub,2013-03-22 20:37:00,
2013-03-22 16:42:00,85.6,75.6,29.95,WSW,237,3.0,12.0,72,0.00,,,0.00,53.0,meteohub,2013-03-22 20:42:00,
2013-03-22 16:47:00,84.9,75.2,29.96,WSW,240,2.0,12.0,73,0.00,,,0.00,79.0,meteohub,2013-03-22 20:47:00,
2013-03-22 16:52:00,84.9,74.8,29.96,SW,230,2.0,6.0,72,0.00,,,0.00,120.0,meteohub,2013-03-22 20:52:00,
2013-03-22 16:57:00,85.5,74.1,29.96,SW,230,6.0,6.0,69,0.00,,,0.00,169.0,meteohub,2013-03-22 20:57:00,
2013-03-22 17:02:00,85.5,75.0,29.96,SW,232,7.0,7.0,71,0.00,,,0.00,146.0,meteohub,2013-03-22 21:02:00,
2013-03-22 17:08:00,84.7,75.2,29.96,SW,219,0.0,10.0,73,0.00,,,0.00,104.0,meteohub,2013-03-22 21:08:00,
2013-03-22 17:13:00,84.4,74.8,29.96,SW,222,1.0,10.0,73,0.00,,,0.00,74.0,meteohub,2013-03-22 21:13:00,
2013-03-22 17:18:00,84.0,74.8,29.96,SW,222,0.0,10.0,74,0.00,,,0.00,69.0,meteohub,2013-03-22 21:18:00,
2013-03-22 17:23:00,83.7,74.8,29.96,SW,233,1.0,5.0,75,0.00,,,0.00,67.0,meteohub,2013-03-22 21:23:00,
2013-03-22 17:28:00,82.9,74.1,29.97,SW,220,0.0,9.0,75,0.00,,,0.00,60.0,meteohub,2013-03-22 21:28:00,
2013-03-22 17:33:00,82.9,73.8,29.97,SW,232,1.0,9.0,74,0.00,,,0.00,42.0,meteohub,2013-03-22 21:33:00,
2013-03-22 17:38:00,82.8,73.2,29.97,SW,234,0.0,7.0,73,0.00,,,0.00,23.0,meteohub,2013-03-22 21:38:00,
2013-03-22 17:43:00,82.6,72.7,29.97,SW,217,0.0,7.0,72,0.00,,,0.00,16.0,meteohub,2013-03-22 21:43:00,
2013-03-22 17:48:00,82.6,73.8,29.97,WSW,239,0.0,7.0,75,0.00,,,0.00,14.0,meteohub,2013-03-22 21:48:00,
2013-03-22 17:53:00,82.2,73.6,29.97,SW,236,3.0,8.0,75,0.00,,,0.00,14.0,meteohub,2013-03-22 21:53:00,
2013-03-22 17:58:00,82.0,73.8,29.98,WSW,239,5.0,8.0,76,0.00,,,0.00,18.0,meteohub,2013-03-22 21:58:00,
2013-03-22 18:03:00,82.2,74.3,29.98,SW,224,0.0,9.0,77,0.00,,,0.00,18.0,meteohub,2013-03-22 22:03:00,
2013-03-22 18:08:00,82.4,74.8,29.98,SW,229,0.0,9.0,78,0.00,,,0.00,14.0,meteohub,2013-03-22 22:08:00,
2013-03-22 18:13:00,82.6,75.4,29.99,WSW,244,0.0,9.0,79,0.00,,,0.00,9.0,meteohub,2013-03-22 22:13:00,
2013-03-22 18:18:00,82.6,75.7,29.99,WSW,250,0.0,8.0,80,0.00,,,0.00,7.0,meteohub,2013-03-22 22:18:00,
2013-03-22 18:24:00,82.6,76.1,29.99,WSW,237,0.0,7.0,81,0.00,,,0.00,5.0,meteohub,2013-03-22 22:24:00,
2013-03-22 18:29:00,82.4,76.3,29.99,WSW,251,0.0,7.0,82,0.00,,,0.00,0.0,meteohub,2013-03-22 22:29:00,
2013-03-22 18:34:00,82.2,76.5,29.99,WSW,251,0.0,7.0,83,0.00,,,0.00,0.0,meteohub,2013-03-22 22:34:00,
2013-03-22 18:39:00,82.0,76.6,29.99,WSW,251,0.0,7.0,84,0.00,,,0.00,0.0,meteohub,2013-03-22 22:39:00,
2013-03-22 18:44:00,81.9,76.8,29.99,WSW,243,1.0,3.0,85,0.00,,,0.00,0.0,meteohub,2013-03-22 22:44:00,
2013-03-22 18:49:00,81.9,76.8,29.99,SW,223,0.0,8.0,85,0.00,,,0.00,0.0,meteohub,2013-03-22 22:49:00,
2013-03-22 18:54:00,81.9,76.8,29.99,SW,233,0.0,8.0,85,0.00,,,0.00,0.0,meteohub,2013-03-22 22:54:00,
2013-03-22 18:59:00,81.9,77.2,29.99,SW,227,0.0,8.0,86,0.00,,,0.00,0.0,meteohub,2013-03-22 22:59:00,
2013-03-22 19:04:00,81.7,77.0,29.99,SW,236,0.0,6.0,86,0.00,,,0.00,0.0,meteohub,2013-03-22 23:04:00,
2013-03-22 19:09:00,81.3,76.6,29.99,SW,234,0.0,7.0,86,0.00,,,0.00,0.0,meteohub,2013-03-22 23:09:00,
2013-03-22 19:14:00,81.3,76.6,30.01,SW,234,0.0,7.0,86,0.00,,,0.00,0.0,meteohub,2013-03-22 23:14:00,
2013-03-22 19:19:00,81.3,77.0,30.01,SW,234,0.0,7.0,87,0.00,,,0.00,0.0,meteohub,2013-03-22 23:19:00,
2013-03-22 19:24:00,81.1,76.5,30.01,SW,234,0.0,0.0,86,0.00,,,0.00,0.0,meteohub,2013-03-22 23:24:00,
2013-03-22 19:29:00,81.1,76.5,30.02,SW,216,0.0,4.0,86,0.00,,,0.00,0.0,meteohub,2013-03-22 23:29:00,
2013-03-22 19:34:00,81.1,76.8,30.02,SW,219,0.0,5.0,87,0.00,,,0.00,0.0,meteohub,2013-03-22 23:34:00,
2013-03-22 19:39:00,81.1,76.8,30.02,SW,227,0.0,5.0,87,0.00,,,0.00,0.0,meteohub,2013-03-22 23:39:00,
2013-03-22 19:44:00,81.1,77.2,30.03,South,188,0.0,8.0,88,0.00,,,0.00,0.0,meteohub,2013-03-22 23:44:00,
2013-03-22 19:49:00,80.8,77.2,30.03,West,277,6.0,8.0,89,0.07,,,0.07,0.0,meteohub,2013-03-22 23:49:00,
2013-03-22 19:54:00,79.5,76.3,30.03,WSW,244,5.0,8.0,90,0.17,,,0.17,0.0,meteohub,2013-03-22 23:54:00,
2013-03-22 19:59:00,77.5,74.1,30.03,WSW,248,0.0,10.0,89,0.19,,,0.19,0.0,meteohub,2013-03-22 23:59:00,
2013-03-22 20:04:00,77.4,74.5,30.03,WSW,250,0.0,10.0,91,0.27,,,0.27,0.0,meteohub,2013-03-23 00:04:00,
2013-03-22 20:10:00,77.4,74.8,30.03,WSW,251,0.0,10.0,92,0.34,,,0.34,0.0,meteohub,2013-03-23 00:10:00,
2013-03-22 20:15:00,77.7,75.6,30.04,WSW,251,0.0,9.0,93,0.35,,,0.35,0.0,meteohub,2013-03-23 00:15:00,
2013-03-22 20:20:00,77.7,75.6,30.04,WSW,251,0.0,0.0,93,0.37,,,0.37,0.0,meteohub,2013-03-23 00:20:00,
2013-03-22 20:25:00,77.7,75.6,30.04,West,265,0.0,0.0,93,0.37,,,0.37,0.0,meteohub,2013-03-23 00:25:00,
2013-03-22 20:30:00,77.4,75.2,30.06,WNW,301,0.0,0.0,93,0.37,,,0.37,0.0,meteohub,2013-03-23 00:30:00,
2013-03-22 20:35:00,76.8,74.7,30.06,WNW,302,0.0,0.0,93,0.37,,,0.37,0.0,meteohub,2013-03-23 00:35:00,
2013-03-22 20:40:00,77.0,74.8,30.06,NW,304,0.0,0.0,93,0.37,,,0.37,0.0,meteohub,2013-03-23 00:40:00,
2013-03-22 20:45:00,77.0,74.8,30.06,NW,318,3.0,0.0,93,0.34,,,0.37,0.0,meteohub,2013-03-23 00:45:00,
2013-03-22 20:50:00,77.0,75.2,30.06,NNW,340,0.0,6.0,94,0.26,,,0.37,0.0,meteohub,2013-03-23 00:50:00,
2013-03-22 20:55:00,77.0,74.8,30.06,NNW,336,0.0,6.0,93,0.19,,,0.37,0.0,meteohub,2013-03-23 00:55:00,
2013-03-22 21:00:00,77.0,75.2,30.06,NNW,336,0.0,6.0,94,0.14,,,0.37,0.0,meteohub,2013-03-23 01:00:00,
2013-03-22 21:05:00,77.0,75.2,30.06,NW,316,0.0,4.0,94,0.03,,,0.37,0.0,meteohub,2013-03-23 01:05:00,
2013-03-22 21:10:00,76.8,75.0,30.06,NW,318,0.0,3.0,94,0.01,,,0.37,0.0,meteohub,2013-03-23 01:10:00,
2013-03-22 21:15:00,77.0,75.2,30.06,NW,318,0.0,3.0,94,0.00,,,0.37,0.0,meteohub,2013-03-23 01:15:00,
2013-03-22 21:20:00,76.6,74.8,30.06,NW,309,0.0,0.0,94,0.00,,,0.37,0.0,meteohub,2013-03-23 01:20:00,
2013-03-22 21:25:00,77.0,75.2,30.06,NW,309,0.0,0.0,94,0.00,,,0.37,0.0,meteohub,2013-03-23 01:25:00,
2013-03-22 21:30:00,76.8,75.0,30.07,NW,316,0.0,6.0,94,0.00,,,0.37,0.0,meteohub,2013-03-23 01:30:00,
2013-03-22 21:35:00,76.6,74.8,30.07,NW,316,0.0,6.0,94,0.00,,,0.37,0.0,meteohub,2013-03-23 01:35:00,
2013-03-22 21:41:00,76.6,74.8,30.07,NW,318,0.0,6.0,94,0.00,,,0.37,0.0,meteohub,2013-03-23 01:41:00,
2013-03-22 21:46:00,76.1,74.3,30.07,NW,313,0.0,0.0,94,0.00,,,0.37,0.0,meteohub,2013-03-23 01:46:00,
2013-03-22 21:51:00,76.1,74.3,30.07,NW,312,0.0,0.0,94,0.00,,,0.37,0.0,meteohub,2013-03-23 01:51:00,
2013-03-22 21:56:00,76.3,74.7,30.07,NW,313,0.0,0.0,95,0.00,,,0.37,0.0,meteohub,2013-03-23 01:56:00,
2013-03-22 22:01:00,76.5,74.8,30.06,NW,312,0.0,0.0,95,0.00,,,0.37,0.0,meteohub,2013-03-23 02:01:00,
2013-03-22 22:07:00,76.5,74.8,30.06,NW,313,0.0,0.0,95,0.00,,,0.37,0.0,meteohub,2013-03-23 02:07:00,
2013-03-22 22:12:00,76.5,74.8,30.06,NW,313,0.0,0.0,95,0.00,,,0.37,0.0,meteohub,2013-03-23 02:12:00,
2013-03-22 22:17:00,76.3,74.7,30.06,NW,313,0.0,0.0,95,0.00,,,0.37,0.0,meteohub,2013-03-23 02:17:00,
2013-03-22 22:22:00,76.6,75.0,30.06,NW,312,0.0,0.0,95,0.00,,,0.37,0.0,meteohub,2013-03-23 02:22:00,
2013-03-22 22:27:00,76.5,74.8,30.06,NW,312,0.0,0.0,95,0.00,,,0.37,0.0,meteohub,2013-03-23 02:27:00,
2013-03-22 22:32:00,76.6,75.0,30.06,NW,313,0.0,0.0,95,0.00,,,0.37,0.0,meteohub,2013-03-23 02:32:00,
2013-03-22 22:37:00,76.3,74.7,30.06,NW,313,0.0,0.0,95,0.00,,,0.37,0.0,meteohub,2013-03-23 02:37:00,
2013-03-22 22:42:00,76.5,74.8,30.06,NW,313,0.0,0.0,95,0.00,,,0.37,0.0,meteohub,2013-03-23 02:42:00,
2013-03-22 22:47:00,76.5,74.8,30.06,NW,313,0.0,0.0,95,0.00,,,0.37,0.0,meteohub,2013-03-23 02:47:00,
2013-03-22 22:52:00,76.6,75.0,30.06,NW,313,0.0,0.0,95,0.00,,,0.37,0.0,meteohub,2013-03-23 02:52:00,
2013-03-22 22:57:00,76.5,74.8,30.06,NW,313,0.0,0.0,95,0.00,,,0.37,0.0,meteohub,2013-03-23 02:57:00,
2013-03-22 23:02:00,76.5,74.8,30.06,NW,312,0.0,0.0,95,0.00,,,0.37,0.0,meteohub,2013-03-23 03:02:00,
2013-03-22 23:07:00,76.6,75.0,30.06,NW,313,0.0,0.0,95,0.00,,,0.37,0.0,meteohub,2013-03-23 03:07:00,
2013-03-22 23:13:00,76.6,74.8,30.06,NW,313,0.0,0.0,94,0.00,,,0.37,0.0,meteohub,2013-03-23 03:13:00,
2013-03-22 23:18:00,76.6,74.8,30.06,NW,313,0.0,0.0,94,0.00,,,0.37,0.0,meteohub,2013-03-23 03:18:00,
2013-03-22 23:23:00,76.6,74.8,30.06,NW,312,0.0,0.0,94,0.00,,,0.37,0.0,meteohub,2013-03-23 03:23:00,
2013-03-22 23:28:00,76.6,74.8,30.05,NW,313,0.0,0.0,94,0.00,,,0.37,0.0,meteohub,2013-03-23 03:28:00,
2013-03-22 23:33:00,76.8,75.0,30.05,NW,313,0.0,0.0,94,0.00,,,0.37,0.0,meteohub,2013-03-23 03:33:00,
2013-03-22 23:38:00,76.6,74.8,30.05,NW,312,0.0,0.0,94,0.00,,,0.37,0.0,meteohub,2013-03-23 03:38:00,
2013-03-22 23:43:00,76.6,74.8,30.05,NW,313,0.0,0.0,94,0.00,,,0.37,0.0,meteohub,2013-03-23 03:43:00,
2013-03-22 23:48:00,76.6,74.5,30.05,NW,313,0.0,0.0,93,0.00,,,0.37,0.0,meteohub,2013-03-23 03:48:00,
2013-03-22 23:53:00,76.6,74.5,30.05,NW,312,0.0,0.0,93,0.00,,,0.37,0.0,meteohub,2013-03-23 03:53:00,
2013-03-22 23:58:00,76.6,74.5,30.05,NW,313,0.0,0.0,93,0.00,,,0.37,0.0,meteohub,2013-03-23 03:58:00,